Orbital Elements at Epoch 2459000.5 (2020-May-31.0) TDB
Reference: JPL 17 (heliocentric ecliptic J2000)
Element | Value | Uncertainty (1-sigma) | Units |
e | .1035546072522045 | 4.219e-08 | |
a | 2.97983263988857 | 2.2873e-08 | au |
q | 2.671257241187609 | 1.2381e-07 | au |
i | 11.07312018289359 | 9.0928e-06 | deg |
node | 196.5143846117556 | 2.1567e-05 | deg |
peri | 101.3495579338831 | 6.1296e-05 | deg |
M | 262.039805301567 | 6.1788e-05 | deg |
tp | 2459511.750063696076 (2021-Oct-24.25006370) | 0.00032608 | TDB |
period | 1878.824592960219 5.14 | 2.1633e-05 5.923e-08 | d yr |
n | .1916091589118465 | 2.2062e-09 | deg/d |
Q | 3.28840803858953 | 2.5242e-08 | au |
|
| | Orbit Determination Parameters
Additional Information
|